,,Stat6,,Stat2,,Stat8,,Stat9,,Stat10,,Wind1,,Wind1,
time,status,PA1M_AVG,status,PR1M_SUM,status,RH1M_AVG,status,SR1M_AVG,status,TA1M_AVG,status,W1dAve1m,status,W1sAve1m,
2008-03-01, 00:00:00,VALID,917.667,VALID,0,VALID,98.9461,VALID,0,VALID,19.0428,VALID,312,VALID,0,
2008-03-01, 00:01:00,VALID,917.65,VALID,0,VALID,98.9054,VALID,0,VALID,19.0398,VALID,312,VALID,0,
2008-03-01, 00:02:00,VALID,917.646,VALID,0,VALID,98.9537,VALID,0.0169808,VALID,19.0465,VALID,312,VALID,0,
2008-03-01, 00:03:00,VALID,917.609,VALID,0,VALID,98.8316,VALID,0,VALID,19.043,VALID,312,VALID,0,
2008-03-01, 00:04:00,VALID,917.601,VALID,0,VALID,98.6384,VALID,0.0339617,VALID,19.0338,VALID,312,VALID,0,
2008-03-01, 00:05:00,VALID,917.598,VALID,0,VALID,98.7007,VALID,0.0169808,VALID,19.0265,VALID,312,VALID,0,
2008-03-01, 00:06:00,VALID,917.577,VALID,0,VALID,98.7859,VALID,0,VALID,19.0328,VALID,312,VALID,0,
2008-03-01, 00:07:00,VALID,917.574,VALID,0,VALID,99.03,VALID,0.0339617,VALID,19.0752,VALID,312,VALID,0,
2008-03-01, 00:08:00,VALID,917.548,VALID,0,VALID,99.1216,VALID,0.0169808,VALID,19.1141,VALID,312,VALID,0,
2008-03-01, 00:09:00,VALID,917.524,VALID,0,VALID,98.9308,VALID,0.0169808,VALID,19.1174,VALID,312,VALID,0,
2008-03-01, 00:10:00,VALID,917.515,VALID,0,VALID,98.8456,VALID,0.0339617,VALID,19.0912,VALID,312,VALID,0,
2008-03-01, 00:11:00,VALID,917.498,VALID,0,VALID,98.6892,VALID,0.0339617,VALID,19.075,VALID,312,VALID,0,
2008-03-01, 00:12:00,VALID,917.483,VALID,0,VALID,98.618,VALID,0.0509425,VALID,19.062,VALID,312,VALID,0,
2008-03-01, 00:13:00,VALID,917.469,VALID,0,VALID,98.5519,VALID,0.0169808,VALID,19.039,VALID,312,VALID,0,
2008-03-01, 00:14:00,VALID,917.461,VALID,0,VALID,98.4057,VALID,0,VALID,19.0068,VALID,312,VALID,0,
2008-03-01, 00:15:00,VALID,917.461,VALID,0,VALID,98.5176,VALID,0.0339617,VALID,18.9969,VALID,312,VALID,0,
2008-03-01, 00:16:00,VALID,917.444,VALID,0,VALID,98.4934,VALID,0.0169808,VALID,18.9971,VALID,312,VALID,0,
2008-03-01, 00:17:00,VALID,917.433,VALID,0,VALID,98.5112,VALID,-0.0169808,VALID,19.0036,VALID,312,VALID,0,
2008-03-01, 00:18:00,VALID,917.422,VALID,0,VALID,98.4603,VALID,0.0169808,VALID,18.9971,VALID,312,VALID,0,
2008-03-01, 00:19:00,VALID,917.42,VALID,0,VALID,98.3103,VALID,0.0509425,VALID,18.9712,VALID,312,VALID,0,
2008-03-01, 00:20:00,VALID,917.411,VALID,0,VALID,98.3141,VALID,0.0339617,VALID,18.9454,VALID,312,VALID,0,
2008-03-01, 00:21:00,VALID,917.402,VALID,0,VALID,98.3968,VALID,0,VALID,18.9422,VALID,313,VALID,0,
2008-03-01, 00:22:00,VALID,917.385,VALID,0,VALID,98.4527,VALID,0.0169808,VALID,18.9582,INVALID,360,VALID,0,
2008-03-01, 00:23:00,VALID,917.384,VALID,0,VALID,98.3484,VALID,-0.0169808,VALID,18.9649,VALID,313,VALID,0,
2008-03-01, 00:24:00,VALID,917.382,VALID,0.2,VALID,98.2276,VALID,0,VALID,18.9649,VALID,313,VALID,0,
2008-03-01, 00:25:00,VALID,917.372,VALID,0,VALID,98.2912,VALID,0,VALID,18.9682,VALID,313,VALID,0,
2008-03-01, 00:26:00,VALID,917.372,VALID,0,VALID,98.2251,VALID,-0.0169808,VALID,18.9746,VALID,313,VALID,0,
2008-03-01, 00:27:00,VALID,917.368,VALID,0,VALID,98.0547,VALID,0,VALID,18.9679,VALID,313,VALID,0,
2008-03-01, 00:28:00,VALID,917.353,VALID,0,VALID,98.0496,VALID,-0.0849042,VALID,18.9531,VALID,313,VALID,0,
2008-03-01, 00:29:00,VALID,917.35,VALID,0,VALID,98.1208,VALID,-0.118866,VALID,18.9629,VALID,313,VALID,0,
2008-03-01, 00:30:00,VALID,917.334,VALID,0,VALID,98.2378,VALID,-0.118866,VALID,18.996,VALID,313,VALID,0,
2008-03-01, 00:31:00,VALID,917.312,VALID,0,VALID,98.3434,VALID,-0.101885,VALID,19.0115,VALID,313,VALID,0,
2008-03-01, 00:32:00,VALID,917.307,VALID,0,VALID,98.3332,VALID,-0.0849042,VALID,19.0247,INVALID,360,VALID,0,
2008-03-01, 00:33:00,VALID,917.302,VALID,0,VALID,98.3434,VALID,-0.118866,VALID,19.0245,VALID,313,VALID,0,
2008-03-01, 00:34:00,VALID,917.29,VALID,0,VALID,98.1246,VALID,-0.0849042,VALID,19.0085,VALID,313,VALID,0,
2008-03-01, 00:35:00,VALID,917.291,VALID,0,VALID,97.9466,VALID,-0.0849042,VALID,19.005,INVALID,360,VALID,0,
2008-03-01, 00:36:00,VALID,917.28,VALID,0,VALID,97.8601,VALID,-0.101885,VALID,19.0018,INVALID,360,VALID,0,
2008-03-01, 00:37:00,VALID,917.279,VALID,0,VALID,97.8131,VALID,-0.101885,VALID,19.0148,VALID,349,VALID,0,
2008-03-01, 00:38:00,VALID,917.266,VALID,0,VALID,97.8423,VALID,-0.101885,VALID,18.9888,VALID,353,VALID,0,
2008-03-01, 00:39:00,VALID,917.26,VALID,0,VALID,98.1475,VALID,-0.101885,VALID,18.9501,VALID,353,VALID,0,
2008-03-01, 00:40:00,VALID,917.242,VALID,0,VALID,98.4972,VALID,-0.101885,VALID,18.9077,VALID,354,VALID,0,
2008-03-01, 00:41:00,VALID,917.226,VALID,0,VALID,98.5328,VALID,-0.101885,VALID,18.8623,VALID,356,VALID,0,
2008-03-01, 00:42:00,VALID,917.22,VALID,0,VALID,98.6778,VALID,-0.101885,VALID,18.8364,VALID,356,VALID,0,
2008-03-01, 00:43:00,VALID,917.225,VALID,0,VALID,98.6689,VALID,0,VALID,18.8257,VALID,356,VALID,0,
2008-03-01, 00:44:00,VALID,917.211,VALID,0,VALID,98.7515,VALID,-0.0169808,VALID,18.8451,VALID,356,VALID,0,
2008-03-01, 00:45:00,VALID,917.207,VALID,0,VALID,98.9423,VALID,0,VALID,18.8711,VALID,356,VALID,0,
2008-03-01, 00:46:00,VALID,917.218,VALID,0,VALID,99.1445,VALID,0,VALID,18.8966,VALID,356,VALID,0,
2008-03-01, 00:47:00,VALID,917.213,VALID,0,VALID,99.1979,VALID,-0.0339617,VALID,18.913,VALID,356,VALID,0,
2008-03-01, 00:48:00,VALID,917.205,VALID,0,VALID,98.894,VALID,0,VALID,18.8838,VALID,356,VALID,0,
2008-03-01, 00:49:00,VALID,917.195,VALID,0,VALID,98.763,VALID,0,VALID,18.8771,VALID,356,VALID,0,
2008-03-01, 00:50:00,VALID,917.172,VALID,0,VALID,98.721,VALID,0,VALID,18.8808,VALID,356,VALID,0,
2008-03-01, 00:51:00,VALID,917.159,VALID,0,VALID,98.6829,VALID,0,VALID,18.8966,VALID,356,VALID,0,
2008-03-01, 00:52:00,VALID,917.154,VALID,0,VALID,98.6028,VALID,0.0169808,VALID,18.8931,VALID,356,VALID,0,
2008-03-01, 00:53:00,VALID,917.14,VALID,0,VALID,98.5455,VALID,-0.0169808,VALID,18.8933,VALID,356,VALID,0,
2008-03-01, 00:54:00,VALID,917.127,VALID,0,VALID,98.6346,VALID,0,VALID,18.9133,VALID,356,VALID,0,
2008-03-01, 00:55:00,VALID,917.1,VALID,0,VALID,98.6066,VALID,0,VALID,18.9,VALID,358,VALID,0,
2008-03-01, 00:56:00,VALID,917.104,VALID,0,VALID,98.6295,VALID,0.0169808,VALID,18.8901,VALID,1,VALID,0,
2008-03-01, 00:57:00,VALID,917.108,VALID,0,VALID,98.9792,VALID,0,VALID,18.9197,VALID,2,VALID,0,
2008-03-01, 00:58:00,VALID,917.11,VALID,0,VALID,99.086,VALID,0,VALID,18.9322,VALID,2,VALID,0,
2008-03-01, 00:59:00,VALID,917.101,VALID,0,VALID,99.1902,VALID,-0.0169808,VALID,18.9517,VALID,2,VALID,0,
2008-03-01, 01:00:00,VALID,917.1,VALID,0,VALID,99.1546,VALID,0,VALID,18.9617,VALID,2,VALID,0,
2008-03-01, 01:01:00,VALID,917.087,VALID,0,VALID,99.1572,VALID,0,VALID,18.9644,VALID,2,VALID,0,
2008-03-01, 01:02:00,VALID,917.073,VALID,0,VALID,99.2246,VALID,0,VALID,18.9714,VALID,2,VALID,0,
2008-03-01, 01:03:00,VALID,917.067,VALID,0,VALID,99.3034,VALID,0.0169808,VALID,18.9939,VALID,2,VALID,0,
2008-03-01, 01:04:00,VALID,917.069,VALID,0,VALID,99.3848,VALID,-0.0169808,VALID,19.0101,VALID,2,VALID,0,
2008-03-01, 01:05:00,VALID,917.063,VALID,0,VALID,99.2932,VALID,0.0169808,VALID,18.9964,VALID,358,VALID,0,
2008-03-01, 01:06:00,VALID,917.057,VALID,0,VALID,99.2398,VALID,0,VALID,18.9744,VALID,358,VALID,0,
2008-03-01, 01:07:00,VALID,917.02,VALID,0,VALID,99.1915,VALID,0,VALID,18.9649,VALID,7,VALID,0,
2008-03-01, 01:08:00,VALID,916.999,VALID,0,VALID,99.2068,VALID,0,VALID,18.9385,VALID,18,VALID,0,
2008-03-01, 01:09:00,VALID,916.986,VALID,0,VALID,99.2818,VALID,0.0169808,VALID,18.9387,VALID,18,VALID,0,
2008-03-01, 01:10:00,VALID,916.984,VALID,0,VALID,99.4306,VALID,-0.0169808,VALID,18.926,VALID,18,VALID,0,
2008-03-01, 01:11:00,VALID,916.956,VALID,0,VALID,99.4992,VALID,0.0169808,VALID,18.929,VALID,11,VALID,0,
2008-03-01, 01:12:00,VALID,916.949,VALID,0,VALID,99.4115,VALID,-0.0169808,VALID,18.8868,VALID,10,VALID,0,
2008-03-01, 01:13:00,VALID,916.95,VALID,0,VALID,99.5361,VALID,0,VALID,18.8838,VALID,9,VALID,0,
2008-03-01, 01:14:00,VALID,916.944,VALID,0,VALID,99.5933,VALID,0.0169808,VALID,18.8769,VALID,19,VALID,0,
2008-03-01, 01:15:00,VALID,916.938,VALID,0,VALID,99.6874,VALID,0.0169808,VALID,18.8803,VALID,15,VALID,0,
2008-03-01, 01:16:00,VALID,916.919,VALID,0,VALID,99.7497,VALID,0.0169808,VALID,18.8938,VALID,7,VALID,0,
2008-03-01, 01:17:00,VALID,916.903,VALID,0,VALID,99.7625,VALID,0.0169808,VALID,18.8903,VALID,8,VALID,0,
2008-03-01, 01:18:00,VALID,916.886,VALID,0,VALID,99.7663,VALID,0.0339617,VALID,18.8836,VALID,11,VALID,0,
2008-03-01, 01:19:00,VALID,916.891,VALID,0,VALID,99.6824,VALID,0.0169808,VALID,18.8739,VALID,18,VALID,0,
2008-03-01, 01:20:00,VALID,916.867,VALID,0,VALID,99.718,VALID,0.0339617,VALID,18.8799,VALID,16,VALID,0,
2008-03-01, 01:21:00,VALID,916.864,VALID,0,VALID,99.7307,VALID,0.0169808,VALID,18.8771,VALID,12,VALID,0,
2008-03-01, 01:22:00,VALID,916.859,VALID,0,VALID,99.6798,VALID,0,VALID,18.8641,VALID,16,VALID,0,
2008-03-01, 01:23:00,VALID,916.849,VALID,0,VALID,99.6658,VALID,-0.0169808,VALID,18.8514,VALID,23,VALID,0,
2008-03-01, 01:24:00,VALID,916.849,VALID,0.2,VALID,99.723,VALID,0.0169808,VALID,18.8447,VALID,20,VALID,0.301389,
2008-03-01, 01:25:00,VALID,916.857,VALID,0,VALID,99.8896,VALID,0,VALID,18.8576,VALID,28,VALID,0.858631,
2008-03-01, 01:26:00,VALID,916.863,VALID,0,VALID,99.7421,VALID,0,VALID,18.8481,VALID,28,VALID,1.04106,
2008-03-01, 01:27:00,VALID,916.833,VALID,0,VALID,99.7803,VALID,0.0169808,VALID,18.8479,VALID,29,VALID,0.993229,
2008-03-01, 01:28:00,VALID,916.831,VALID,0,VALID,99.7523,VALID,0,VALID,18.8386,VALID,27,VALID,0.881669,
2008-03-01, 01:29:00,VALID,916.8,VALID,0,VALID,99.9036,VALID,-0.0169808,VALID,18.8417,VALID,12,VALID,0.919207,
2008-03-01, 01:30:00,VALID,916.794,VALID,0,VALID,99.9112,VALID,0,VALID,18.8384,VALID,24,VALID,0.915334,
2008-03-01, 01:31:00,VALID,916.767,VALID,0,VALID,99.9036,VALID,0,VALID,18.8511,VALID,32,VALID,0.467297,
2008-03-01, 01:32:00,VALID,916.765,VALID,0,VALID,99.854,VALID,0,VALID,18.8414,VALID,25,VALID,0.711648,
2008-03-01, 01:33:00,VALID,916.75,VALID,0,VALID,99.8311,VALID,0,VALID,18.8414,VALID,20,VALID,0.915128,
2008-03-01, 01:34:00,VALID,916.73,VALID,0,VALID,99.8489,VALID,0.0679233,VALID,18.8641,VALID,18,VALID,1.00195,
2008-03-01, 01:35:00,VALID,916.702,VALID,0,VALID,99.826,VALID,0.0339617,VALID,18.8931,VALID,26,VALID,0.726935,
2008-03-01, 01:36:00,VALID,916.689,VALID,0,VALID,99.9176,VALID,0.0169808,VALID,18.9253,VALID,16,VALID,0.151215,
2008-03-01, 01:37:00,VALID,916.664,VALID,0,VALID,99.7675,VALID,-0.0169808,VALID,18.9519,VALID,16,VALID,0,
2008-03-01, 01:38:00,VALID,916.647,VALID,0,VALID,99.7625,VALID,0.0169808,VALID,18.9355,VALID,16,VALID,0.274325,
2008-03-01, 01:39:00,VALID,916.628,VALID,0,VALID,99.6836,VALID,0.0169808,VALID,18.929,VALID,20,VALID,0.701079,
2008-03-01, 01:40:00,VALID,916.605,VALID,0,VALID,99.5857,VALID,0.0339617,VALID,18.9223,VALID,28,VALID,0.900799,
2008-03-01, 01:41:00,VALID,916.596,VALID,0,VALID,99.5158,VALID,0,VALID,18.9128,VALID,37,VALID,0.852896,
2008-03-01, 01:42:00,VALID,916.587,VALID,0,VALID,99.5501,VALID,0,VALID,18.9355,VALID,38,VALID,0.461119,
2008-03-01, 01:43:00,VALID,916.578,VALID,0,VALID,99.531,VALID,-0.0169808,VALID,18.9517,VALID,38,VALID,0.331321,
2008-03-01, 01:44:00,VALID,916.569,VALID,0,VALID,99.4624,VALID,0,VALID,18.9515,VALID,38,VALID,0.406994,
2008-03-01, 01:45:00,VALID,916.555,VALID,0,VALID,99.4153,VALID,0,VALID,18.9547,VALID,38,VALID,0,
2008-03-01, 01:46:00,VALID,916.542,VALID,0,VALID,99.2996,VALID,0.0169808,VALID,18.9292,VALID,37,VALID,0.0494186,
2008-03-01, 01:47:00,VALID,916.529,VALID,0,VALID,99.4725,VALID,0,VALID,18.942,VALID,36,VALID,0.763494,
2008-03-01, 01:48:00,VALID,916.512,VALID,0,VALID,99.5069,VALID,0,VALID,18.9682,VALID,27,VALID,0.18125,
2008-03-01, 01:49:00,VALID,916.487,VALID,0,VALID,99.3886,VALID,0,VALID,18.9744,VALID,29,VALID,0.479367,
2008-03-01, 01:50:00,VALID,916.459,VALID,0,VALID,99.3466,VALID,0,VALID,18.9679,VALID,38,VALID,0.050686,
2008-03-01, 01:51:00,VALID,916.425,VALID,0,VALID,99.3212,VALID,0,VALID,18.9746,VALID,45,VALID,0,
2008-03-01, 01:52:00,VALID,916.4,VALID,0,VALID,99.3238,VALID,-0.0169808,VALID,18.9876,VALID,46,VALID,0,
2008-03-01, 01:53:00,VALID,916.371,VALID,0,VALID,99.2996,VALID,-0.0169808,VALID,18.9774,VALID,46,VALID,0,
2008-03-01, 01:54:00,VALID,916.362,VALID,0,VALID,99.3339,VALID,0,VALID,18.9809,VALID,46,VALID,0,
2008-03-01, 01:55:00,VALID,916.357,VALID,0,VALID,99.3352,VALID,0,VALID,18.9811,VALID,46,VALID,0,
2008-03-01, 01:56:00,VALID,916.349,VALID,0,VALID,99.3695,VALID,0,VALID,18.9709,VALID,46,VALID,0,
2008-03-01, 01:57:00,VALID,916.339,VALID,0,VALID,99.3161,VALID,0,VALID,18.9674,VALID,46,VALID,0,
2008-03-01, 01:58:00,VALID,916.331,VALID,0,VALID,99.2843,VALID,0,VALID,18.9582,VALID,46,VALID,0,
2008-03-01, 01:59:00,VALID,916.313,VALID,0,VALID,99.3606,VALID,0,VALID,18.9582,VALID,46,VALID,0,
2008-03-01, 02:00:00,VALID,916.303,VALID,0,VALID,99.3899,VALID,0,VALID,18.9679,VALID,46,VALID,0,
2008-03-01, 02:01:00,VALID,916.295,VALID,0,VALID,99.5259,VALID,0,VALID,19.0041,VALID,45,VALID,0,
2008-03-01, 02:02:00,VALID,916.285,VALID,0,VALID,99.634,VALID,0.0339617,VALID,19.0263,VALID,45,VALID,0,
2008-03-01, 02:03:00,VALID,916.276,VALID,0,VALID,99.6811,VALID,0.0169808,VALID,19.0328,VALID,45,VALID,0,
2008-03-01, 02:04:00,VALID,916.275,VALID,0,VALID,99.7192,VALID,0.0169808,VALID,19.0265,VALID,45,VALID,0,
2008-03-01, 02:05:00,VALID,916.256,VALID,0,VALID,99.854,VALID,0,VALID,19.0395,VALID,45,VALID,0,
2008-03-01, 02:06:00,VALID,916.254,VALID,0,VALID,99.8311,VALID,0.0339617,VALID,19.036,VALID,45,VALID,0,
2008-03-01, 02:07:00,VALID,916.235,VALID,0,VALID,99.7408,VALID,-0.0169808,VALID,19.0231,VALID,45,VALID,0,
2008-03-01, 02:08:00,VALID,916.214,VALID,0,VALID,99.6671,VALID,0,VALID,19.0133,VALID,45,VALID,0,
2008-03-01, 02:09:00,VALID,916.198,VALID,0,VALID,99.6887,VALID,0.0339617,VALID,19.0004,VALID,45,VALID,0,
2008-03-01, 02:10:00,VALID,916.181,VALID,0,VALID,99.7485,VALID,0.0169808,VALID,19.0068,VALID,45,VALID,0,
2008-03-01, 02:11:00,VALID,916.167,VALID,0,VALID,99.7027,VALID,-0.0169808,VALID,18.9969,VALID,45,VALID,0,
2008-03-01, 02:12:00,VALID,916.163,VALID,0,VALID,99.5908,VALID,0,VALID,18.9679,VALID,45,VALID,0,
2008-03-01, 02:13:00,VALID,916.148,VALID,0,VALID,99.6569,VALID,0.0339617,VALID,18.9482,VALID,45,VALID,0,
2008-03-01, 02:14:00,VALID,916.129,VALID,0,VALID,99.7523,VALID,0,VALID,18.9512,VALID,46,VALID,0,
2008-03-01, 02:15:00,VALID,916.11,VALID,0,VALID,99.7637,VALID,0,VALID,18.9772,VALID,48,VALID,0,
2008-03-01, 02:16:00,VALID,916.097,VALID,0,VALID,99.6595,VALID,0.0169808,VALID,18.9839,VALID,49,VALID,0,
2008-03-01, 02:17:00,VALID,916.099,VALID,0,VALID,99.6099,VALID,0.0169808,VALID,18.9971,VALID,49,VALID,0,
2008-03-01, 02:18:00,VALID,916.103,VALID,0,VALID,99.6696,VALID,0,VALID,19.0004,VALID,49,VALID,0,
2008-03-01, 02:19:00,VALID,916.08,VALID,0,VALID,99.7103,VALID,0,VALID,19.0166,VALID,49,VALID,0,
2008-03-01, 02:20:00,VALID,916.067,VALID,0,VALID,99.8121,VALID,0,VALID,19.0458,VALID,49,VALID,0,
2008-03-01, 02:21:00,VALID,916.046,VALID,0,VALID,99.7027,VALID,0,VALID,19.062,VALID,49,VALID,0,
2008-03-01, 02:22:00,VALID,916.014,VALID,0,VALID,99.4853,VALID,0,VALID,19.0425,VALID,49,VALID,0,
2008-03-01, 02:23:00,VALID,915.989,VALID,0,VALID,99.6162,VALID,0.0169808,VALID,19.0228,VALID,49,VALID,0,
2008-03-01, 02:24:00,VALID,915.965,VALID,0,VALID,99.62,VALID,0.0169808,VALID,19.0036,VALID,49,VALID,0,
2008-03-01, 02:25:00,VALID,915.936,VALID,0,VALID,99.5768,VALID,0.0169808,VALID,18.9742,VALID,68,VALID,0,
2008-03-01, 02:26:00,VALID,915.906,VALID,0,VALID,99.6811,VALID,0,VALID,18.9609,VALID,80,VALID,0,
2008-03-01, 02:27:00,VALID,915.906,VALID,0,VALID,99.7319,VALID,0.0169808,VALID,18.9644,VALID,80,VALID,0.240451,
2008-03-01, 02:28:00,VALID,915.896,VALID,0,VALID,99.7447,VALID,0,VALID,18.9485,VALID,81,VALID,0.470465,
2008-03-01, 02:29:00,VALID,915.869,VALID,0,VALID,99.8349,VALID,0.0169808,VALID,18.9223,VALID,89,VALID,0.58718,
2008-03-01, 02:30:00,VALID,915.871,VALID,0,VALID,99.9853,VALID,0.0339617,VALID,18.8926,VALID,94,VALID,0.495458,
2008-03-01, 02:31:00,VALID,915.864,VALID,0,VALID,100,VALID,-0.0169808,VALID,18.8806,VALID,94,VALID,0.328683,
2008-03-01, 02:32:00,VALID,915.842,VALID,0,VALID,100,VALID,-0.0169808,VALID,18.8509,VALID,94,VALID,0,
2008-03-01, 02:33:00,VALID,915.819,VALID,0,VALID,100,VALID,0.0169808,VALID,18.8319,VALID,94,VALID,0,
2008-03-01, 02:34:00,VALID,915.819,VALID,0,VALID,100,VALID,-0.0169808,VALID,18.7895,VALID,94,VALID,0,
2008-03-01, 02:35:00,VALID,915.8,VALID,0,VALID,100,VALID,-0.0169808,VALID,18.7701,VALID,94,VALID,0,
2008-03-01, 02:36:00,VALID,915.787,VALID,0,VALID,100,VALID,0,VALID,18.7476,VALID,94,VALID,0,
2008-03-01, 02:37:00,VALID,915.753,VALID,0,VALID,100,VALID,-0.0339617,VALID,18.7149,VALID,94,VALID,0,
2008-03-01, 02:38:00,VALID,915.752,VALID,0,VALID,100,VALID,-0.0339617,VALID,18.6728,VALID,94,VALID,0,
2008-03-01, 02:39:00,VALID,915.745,VALID,0,VALID,100,VALID,0,VALID,18.6501,VALID,94,VALID,0,
2008-03-01, 02:40:00,VALID,915.707,VALID,0,VALID,100,VALID,0.0339617,VALID,18.6271,VALID,94,VALID,0,
2008-03-01, 02:41:00,VALID,915.663,VALID,0,VALID,100,VALID,0.0169808,VALID,18.6176,VALID,93,VALID,0.510671,
2008-03-01, 02:42:00,VALID,915.64,VALID,0,VALID,100,VALID,0.0169808,VALID,18.6014,VALID,84,VALID,1.16254,
2008-03-01, 02:43:00,VALID,915.601,VALID,0,VALID,100,VALID,0,VALID,18.6111,VALID,81,VALID,1.10212,
2008-03-01, 02:44:00,VALID,915.568,VALID,0,VALID,100,VALID,0,VALID,18.5947,VALID,76,VALID,0.649891,
2008-03-01, 02:45:00,VALID,915.568,VALID,0,VALID,100,VALID,0.0169808,VALID,18.591,VALID,75,VALID,0,
2008-03-01, 02:46:00,VALID,915.57,VALID,0,VALID,100,VALID,0.0339617,VALID,18.5977,VALID,75,VALID,0,
2008-03-01, 02:47:00,VALID,915.594,VALID,0,VALID,100,VALID,0.0339617,VALID,18.6077,VALID,75,VALID,0,
2008-03-01, 02:48:00,VALID,915.6,VALID,0,VALID,100,VALID,0.0339617,VALID,18.6174,VALID,75,VALID,0,
2008-03-01, 02:49:00,VALID,915.595,VALID,0,VALID,100,VALID,0.0169808,VALID,18.6496,VALID,75,VALID,0,
2008-03-01, 02:50:00,VALID,915.616,VALID,0,VALID,100,VALID,-0.0169808,VALID,18.6658,VALID,75,VALID,0,
2008-03-01, 02:51:00,VALID,915.623,VALID,0,VALID,100,VALID,0,VALID,18.6922,VALID,75,VALID,0,
2008-03-01, 02:52:00,VALID,915.623,VALID,0,VALID,100,VALID,0.0169808,VALID,18.7237,VALID,75,VALID,0,
2008-03-01, 02:53:00,VALID,915.635,VALID,0,VALID,100,VALID,0.0169808,VALID,18.7633,VALID,75,VALID,0,
2008-03-01, 02:54:00,VALID,915.644,VALID,0,VALID,100,VALID,-0.0169808,VALID,18.7796,VALID,75,VALID,0,
2008-03-01, 02:55:00,VALID,915.646,VALID,0,VALID,100,VALID,0.0339617,VALID,18.7858,VALID,75,VALID,0,
2008-03-01, 02:56:00,VALID,915.626,VALID,0,VALID,100,VALID,0.0509425,VALID,18.7696,VALID,75,VALID,0,
2008-03-01, 02:57:00,VALID,915.609,VALID,0,VALID,100,VALID,0.0169808,VALID,18.7696,VALID,75,VALID,0,
2008-03-01, 02:58:00,VALID,915.591,VALID,0,VALID,100,VALID,-0.0849042,VALID,18.7745,VALID,75,VALID,0,
2008-03-01, 02:59:00,VALID,915.582,VALID,0,VALID,100,VALID,-0.101885,VALID,18.7613,VALID,75,VALID,0,
2008-03-01, 03:00:00,VALID,915.553,VALID,0,VALID,100,VALID,-0.118866,VALID,18.7256,VALID,75,VALID,0,
2008-03-01, 03:01:00,VALID,915.558,VALID,0,VALID,100,VALID,-0.0849042,VALID,18.7189,VALID,75,VALID,0,
2008-03-01, 03:02:00,VALID,915.537,VALID,0,VALID,100,VALID,-0.0849042,VALID,18.7321,VALID,75,VALID,0,
2008-03-01, 03:03:00,VALID,915.531,VALID,0,VALID,100,VALID,-0.0679233,VALID,18.7291,VALID,75,VALID,0,
2008-03-01, 03:04:00,VALID,915.522,VALID,0,VALID,100,VALID,-0.0849042,VALID,18.7418,VALID,75,VALID,0,
2008-03-01, 03:05:00,VALID,915.51,VALID,0,VALID,100,VALID,-0.101885,VALID,18.7416,VALID,75,VALID,0,
2008-03-01, 03:06:00,VALID,915.482,VALID,0,VALID,100,VALID,-0.101885,VALID,18.7743,VALID,75,VALID,0,
2008-03-01, 03:07:00,VALID,915.47,VALID,0,VALID,100,VALID,-0.118866,VALID,18.8007,VALID,75,VALID,0,
2008-03-01, 03:08:00,VALID,915.456,VALID,0,VALID,100,VALID,-0.0849042,VALID,18.8134,VALID,75,VALID,0,
2008-03-01, 03:09:00,VALID,915.445,VALID,0,VALID,100,VALID,-0.101885,VALID,18.8264,VALID,75,VALID,0,
2008-03-01, 03:10:00,VALID,915.432,VALID,0,VALID,100,VALID,-0.0679233,VALID,18.8326,VALID,75,VALID,0,
2008-03-01, 03:11:00,VALID,915.393,VALID,0,VALID,100,VALID,-0.101885,VALID,18.8391,VALID,75,VALID,0,
2008-03-01, 03:12:00,VALID,915.366,VALID,0,VALID,100,VALID,-0.101885,VALID,18.8526,VALID,75,VALID,0,
2008-03-01, 03:13:00,VALID,915.342,VALID,0,VALID,100,VALID,0.0169808,VALID,18.8572,VALID,75,VALID,0,
2008-03-01, 03:14:00,VALID,915.331,VALID,0,VALID,100,VALID,0.0169808,VALID,18.8766,VALID,61,VALID,0,
2008-03-01, 03:15:00,VALID,915.311,VALID,0,VALID,100,VALID,0,VALID,18.8993,VALID,22,VALID,0,
2008-03-01, 03:16:00,VALID,915.301,VALID,0,VALID,100,VALID,0.0339617,VALID,18.9088,VALID,22,VALID,0,
2008-03-01, 03:17:00,VALID,915.28,VALID,0,VALID,100,VALID,0.0169808,VALID,18.9158,VALID,22,VALID,0,
2008-03-01, 03:18:00,VALID,915.27,VALID,0,VALID,100,VALID,0.0169808,VALID,18.932,VALID,22,VALID,0,
2008-03-01, 03:19:00,VALID,915.257,VALID,0,VALID,100,VALID,0.0679233,VALID,18.935,VALID,22,VALID,0,
2008-03-01, 03:20:00,VALID,915.239,VALID,0,VALID,100,VALID,0.0169808,VALID,18.9417,VALID,22,VALID,0,
2008-03-01, 03:21:00,VALID,915.219,VALID,0,VALID,100,VALID,0.0169808,VALID,18.9255,VALID,22,VALID,0,
2008-03-01, 03:22:00,VALID,915.206,VALID,0,VALID,100,VALID,0.0169808,VALID,18.8996,VALID,22,VALID,0,
2008-03-01, 03:23:00,VALID,915.203,VALID,0,VALID,100,VALID,0,VALID,18.9026,VALID,22,VALID,0,
2008-03-01, 03:24:00,VALID,915.219,VALID,0,VALID,100,VALID,0,VALID,18.9225,VALID,19,VALID,0,
2008-03-01, 03:25:00,VALID,915.222,VALID,0,VALID,100,VALID,0.0169808,VALID,18.9153,VALID,17,VALID,0,
2008-03-01, 03:26:00,VALID,915.208,VALID,0,VALID,100,VALID,0.0339617,VALID,18.919,VALID,17,VALID,0,
2008-03-01, 03:27:00,VALID,915.208,VALID,0,VALID,100,VALID,0.0169808,VALID,18.9288,VALID,3,VALID,0,
2008-03-01, 03:28:00,VALID,915.206,VALID,0,VALID,100,VALID,-0.0339617,VALID,18.9394,VALID,3,VALID,0,
2008-03-01, 03:29:00,VALID,915.201,VALID,0,VALID,100,VALID,-0.0849042,VALID,18.9392,VALID,3,VALID,0,
2008-03-01, 03:30:00,VALID,915.207,VALID,0,VALID,100,VALID,-0.0849042,VALID,18.9527,VALID,3,VALID,0,
2008-03-01, 03:31:00,VALID,915.2,VALID,0,VALID,100,VALID,-0.0849042,VALID,18.9754,VALID,3,VALID,0,
2008-03-01, 03:32:00,VALID,915.209,VALID,0,VALID,100,VALID,-0.118866,VALID,18.9816,VALID,3,VALID,0,
2008-03-01, 03:33:00,VALID,915.209,VALID,0,VALID,100,VALID,-0.118866,VALID,18.9981,VALID,3,VALID,0,
2008-03-01, 03:34:00,VALID,915.194,VALID,0,VALID,100,VALID,-0.101885,VALID,19.018,VALID,3,VALID,0,
2008-03-01, 03:35:00,VALID,915.171,VALID,0,VALID,100,VALID,-0.101885,VALID,19.011,VALID,4,VALID,0,
2008-03-01, 03:36:00,VALID,915.172,VALID,0,VALID,100,VALID,-0.101885,VALID,18.9856,VALID,4,VALID,0,
2008-03-01, 03:37:00,VALID,915.187,VALID,0,VALID,100,VALID,-0.118866,VALID,18.9756,VALID,4,VALID,0,
2008-03-01, 03:38:00,VALID,915.18,VALID,0,VALID,100,VALID,-0.118866,VALID,18.9721,VALID,4,VALID,0,
2008-03-01, 03:39:00,VALID,915.166,VALID,0,VALID,100,VALID,-0.101885,VALID,18.9726,VALID,4,VALID,0,
2008-03-01, 03:40:00,VALID,915.147,VALID,0,VALID,100,VALID,-0.118866,VALID,18.9724,VALID,4,VALID,0,
2008-03-01, 03:41:00,VALID,915.14,VALID,0,VALID,100,VALID,-0.101885,VALID,18.9754,VALID,4,VALID,0,
2008-03-01, 03:42:00,VALID,915.14,VALID,0,VALID,100,VALID,-0.101885,VALID,18.9986,VALID,4,VALID,0,
2008-03-01, 03:43:00,VALID,915.135,VALID,0,VALID,100,VALID,-0.101885,VALID,18.9918,VALID,4,VALID,0,
2008-03-01, 03:44:00,VALID,915.128,VALID,0,VALID,100,VALID,-0.101885,VALID,18.9594,VALID,4,VALID,0,
2008-03-01, 03:45:00,VALID,915.126,VALID,0,VALID,100,VALID,-0.0679233,VALID,18.9142,VALID,4,VALID,0,
2008-03-01, 03:46:00,VALID,915.127,VALID,0,VALID,100,VALID,-0.101885,VALID,18.8716,VALID,4,VALID,0,
2008-03-01, 03:47:00,VALID,915.122,VALID,0,VALID,100,VALID,-0.101885,VALID,18.8294,VALID,4,VALID,0,
2008-03-01, 03:48:00,VALID,915.123,VALID,0,VALID,100,VALID,-0.101885,VALID,18.8201,VALID,4,VALID,0,
2008-03-01, 03:49:00,VALID,915.105,VALID,0,VALID,100,VALID,-0.118866,VALID,18.8072,VALID,4,VALID,0,
2008-03-01, 03:50:00,VALID,915.073,VALID,0,VALID,100,VALID,-0.135847,VALID,18.8331,VALID,4,VALID,0,